#timestamp,LO_Frequency,Hit,StdDev 
1563285615.6,286046999.2,N
1563285635.4,286046996.6,N
1563285655.3,286046997.8,N
1563285675.1,286046997.0,N
1563285695.9,286046996.6,N
1563285715.7,286046996.6,N
1563285735.5,286046997.9,N
1563285755.4,286046997.5,N
1563285775.2,286046998.0,N
1563285795.1,286046995.1,Y
1563285796.0,286046995.1,P
1563285815.8,286046998.6,N
1563285835.6,286046999.3,N
1563285855.5,286046998.3,N
1563285875.3,286046999.2,N
1563285895.1,286046999.4,N
1563285915.9,286046999.2,N
1563285935.7,286046998.9,N
1563285955.6,286046999.4,N
1563285975.4,286046999.3,N
1563285995.2,286046999.0,N
1563286015.1,286046998.2,N
1563286016.0,286046998.2,N
1563286035.8,286047001.0,N
1563286055.7,286046999.1,N
1563286075.5,286046996.9,N
1563286095.3,286046997.5,N
1563286115.2,286046999.6,N
1563286135.0,286046999.2,N
1563286135.9,286046999.2,N
1563286155.7,286046996.6,N
1563286175.6,286046999.6,N
1563286195.4,286046996.5,N
1563286215.3,286046999.3,N
1563286235.1,286046998.7,N
1563286255.8,286046998.7,N
1563286275.7,286046998.9,N
1563286295.5,286046998.8,N
1563286315.4,286047001.2,N
1563286335.2,286046998.2,N
1563286355.0,286046999.0,N
1563286355.9,286046999.0,N
1563286375.8,286046999.2,N
1563286395.6,286046999.4,N
1563286415.4,286046998.8,N
1563286435.3,286047001.0,N
1563286455.1,286046998.2,N
1563286475.9,286047000.8,N
1563286495.7,286046998.3,N
1563286515.5,286046998.8,N
1563286535.4,286046998.5,N
1563286555.2,286047000.5,N
1563286575.1,286047001.0,N
1563286576.0,286047001.0,N
1563286595.8,286047000.7,N
1563286615.6,286047001.1,N
1563286635.5,286046998.3,N
1563286655.3,286046998.6,N
1563286675.1,286046999.4,N
1563286695.9,286046998.9,N
1563286715.7,286046998.7,N
1563286735.6,286046998.5,N
1563286755.4,286046996.6,Y
1563286775.2,286046999.4,P
1563286795.1,286046998.6,P
1563286796.0,286046998.6,P
1563286815.8,286047000.5,N
1563286835.7,286047001.2,N
1563286855.5,286046999.9,N
1563286875.3,286047000.2,N
1563286895.2,286047000.2,N
1563286915.0,286047002.3,N
1563286915.9,286047002.3,N
1563286935.8,286047002.4,N
1563286955.6,286047001.9,N
1563286975.4,286047002.6,N
1563286995.3,286047002.4,N
1563287015.1,286047002.2,N
1563287035.8,286047000.0,N
1563287055.7,286046998.2,N
1563287075.5,286046998.2,N
1563287095.4,286046998.5,N
1563287115.2,286046998.9,N
1563287135.0,286046999.2,N
1563287135.9,286046999.2,N
1563287155.8,286046998.7,N
1563287175.6,286047000.7,N
1563287195.4,286047001.1,N
1563287215.3,286047000.8,N
1563287235.1,286046998.1,N
1563287255.9,286047001.0,N
1563287275.7,286047000.0,N
1563287295.5,286047001.0,N
1563287315.4,286046998.1,N
1563287335.2,286047000.6,N
1563287355.0,286047001.1,N
1563287356.0,286047001.1,N
1563287375.8,286047000.8,N
1563287395.6,286047000.4,N
1563287415.5,286047000.2,N
1563287435.3,286047002.2,N
1563287455.1,286047001.7,N
1563287475.9,286047001.4,N
1563287495.7,286047001.9,N
1563287515.6,286047001.3,N
1563287535.4,286047000.5,N
1563287555.2,286047002.4,N
1563287575.1,286047002.5,N
1563287576.0,286047002.5,N
1563287595.8,286047002.4,N
1563287615.6,286047000.4,N
1563287635.5,286046999.9,N
1563287655.3,286047000.1,N
1563287675.2,286047001.5,N
1563287695.9,286047001.4,N
1563287715.7,286047004.1,Y
1563287735.6,286047002.5,P
1563287755.4,286047000.5,N
1563287775.3,286046998.1,N
1563287795.1,286047000.4,N
1563287796.0,286047000.4,N
1563287815.8,286047000.4,N
1563287835.7,286047000.7,N
1563287855.5,286047001.2,N
1563287875.4,286047001.2,N
1563287895.2,286047001.0,N
1563287915.0,286047000.7,N
1563287915.9,286047000.7,N
1563287935.8,286047000.5,N
1563287955.6,286046998.8,N
1563287975.4,286046998.4,N
1563287995.3,286046998.4,N
1563288015.1,286046998.6,N
1563288035.9,286047000.1,N
1563288055.7,286046999.8,N
1563288075.5,286047000.2,N
1563288095.4,286046999.7,N
1563288115.2,286047002.8,N
1563288135.1,286046999.9,N
1563288136.0,286046999.9,N
1563288155.8,286047011.9,Y
1563288175.6,286047000.0,P
1563288195.5,286047000.2,N
1563288215.3,286046998.2,P
1563288235.2,286047001.2,N
1563288255.9,286047000.6,N
1563288275.7,286047000.5,N
1563288295.6,286047002.4,N
1563288315.4,286047002.7,N
1563288335.2,286047001.2,N
1563288355.1,286047000.8,N
1563288356.0,286047000.8,N
1563288375.8,286047000.1,N
1563288395.7,286047002.0,N
1563288415.5,286046999.8,N
1563288435.3,286047002.1,N
1563288455.2,286047002.1,N
1563288475.0,286047006.0,Y
1563288475.9,286047006.0,P
1563288495.8,286047001.9,N
1563288515.6,286047002.7,N
1563288535.5,286047002.8,N
1563288555.3,286047002.8,N
1563288575.1,286047000.2,N
1563288595.9,286047000.5,N
1563288615.7,286047000.9,N
1563288635.5,286047002.2,N
1563288655.4,286047001.8,N
1563288675.2,286047004.4,N
1563288695.1,286047004.0,N
1563288696.0,286047004.0,N
1563288715.8,286047003.1,N
1563288735.6,286047004.1,N
1563288755.5,286047004.0,N
1563288775.3,286047004.3,N
1563288795.1,286047003.1,N
1563288815.9,286047005.9,Y
1563288835.7,286047002.4,P
1563288855.6,286047002.7,P
1563288875.4,286047002.1,P
1563288895.2,286047002.4,Y
1563288915.1,286046996.9,P
1563288916.0,286046996.9,N
1563288935.7,286046999.1,N
1563288955.6,286046997.1,N
1563288975.4,286046997.2,N
1563288995.3,286046997.1,N
1563289015.1,286046995.2,N
1563289016.0,286046995.2,N
1563289035.8,286046995.3,N
1563289055.7,286046995.4,N
1563289075.5,286046996.0,N
1563289095.3,286046996.2,N
1563289115.2,286046995.5,N
1563289135.0,286046995.8,N
1563289135.9,286046995.8,N
1563289155.8,286046995.6,N
1563289175.6,286046997.9,N
1563289195.4,286046997.8,N
